Alicante, Spain

7:01 AM CEST on April 28, 2017 (GMT +0200)
Alicante

Weather History for LEAL - April, 2013

Change the Weather History Date:

Monday, April 1, 2013

  Actual Average Record
Temperature  
Mean Temperature 64 °F -  
Max Temperature 73 °F 67 °F 77 °F (2017)
Min Temperature 54 °F 50 °F 44 °F (2004)
Degree Days  
Heating Degree Days 2    
Growing Degree Days 14 (Base 50)    
Moisture  
Dew Point 45 °F    
Average Humidity 60    
Maximum Humidity 100    
Minimum Humidity 15    
Precipitation  
Precipitation 0.02 in - - ()
Sea Level Pressure  
Sea Level Pressure 29.61 in    
Wind  
Wind Speed 8 mph ()    
Max Wind Speed 25 mph    
Max Gust Speed 40 mph    
Visibility 6.4 miles    
Events Rain    
Averages and records for this station are not official NWS values.
T = Trace of Precipitation, MM = Missing Value Source: Averaged Metar Reports

Daily Weather History Graph

Daily Weather History Graph

Search for Another Location

Airport or City:

Trip Planner

Search our weather history database for the weather conditions in past years. The results will help you decide how hot, cold, wet, or windy it might be!

Date:

Astronomy

Apr. 01, 2013 Rise Set
Actual Time 7:47 AM CEST 8:25 PM CEST
Civil Twilight 7:20 AM CEST 8:52 PM CEST
Nautical Twilight 6:49 AM CEST 9:23 PM CEST
Astronomical Twilight 6:16 AM CEST 9:55 PM CEST
Moon 1:14 AM CEST (4/1) 11:22 AM CEST (4/1)
Length of Visible Light 13h 31m
Length of Day
12h 38m
Waning Gibbous, 70% of the Moon is Illuminated
Apr 1
Waning Gibbous
Apr 3
Last Quarter
Apr 10
New
Apr 18
First Quarter
Apr 25
Full

Hourly Weather History & Observations

Time (CEST) Temp. Dew Point Humidity Pressure Visibility Wind Dir Wind Speed Gust Speed Precip Events Conditions
12:00 AM 59.0 °F 57.2 °F 94% 29.65 in 6.2 mi Variable 1.2 mph - N/A   Partly Cloudy
12:30 AM 57.2 °F 57.2 °F 100% 29.65 in 6.2 mi Calm Calm - N/A Rain Light Rain
1:00 AM 57.2 °F 57.2 °F 100% 29.62 in 6.2 mi Calm Calm - N/A Rain Light Rain
1:30 AM 57.2 °F 55.4 °F 94% 29.59 in 6.2 mi Calm Calm - N/A Rain Light Rain
2:00 AM 58 °F 53 °F 80% 29.60 in 9 mi NNE 2.3 mph - - Rain Light Rain
2:00 AM 59.0 °F 57.2 °F 94% 29.59 in 6.2 mi Variable 1.2 mph - N/A Rain Light Rain
2:30 AM 57.2 °F 57.2 °F 100% 29.56 in 6.2 mi Calm Calm - N/A Rain Light Rain
3:00 AM 57.2 °F 57.2 °F 100% 29.56 in 6.2 mi Calm Calm - N/A   Partly Cloudy
3:30 AM 57.2 °F 57.2 °F 100% 29.56 in 6.2 mi Calm Calm - N/A   Partly Cloudy
4:00 AM 57.2 °F 55.4 °F 94% 29.53 in 6.2 mi Calm Calm - N/A   Partly Cloudy
4:30 AM 57.2 °F 57.2 °F 100% 29.53 in 6.2 mi Variable 1.2 mph - N/A   Partly Cloudy
5:00 AM 57.2 °F 57.2 °F 100% 29.53 in 5.6 mi WSW 3.5 mph - N/A Rain Light Rain
5:30 AM 57.2 °F 57.2 °F 100% 29.53 in 5.6 mi Variable 1.2 mph - N/A Rain Light Rain
6:00 AM 57.2 °F 55.4 °F 94% 29.53 in 5.6 mi Variable 2.3 mph - N/A Rain Light Rain
6:30 AM 55.4 °F 55.4 °F 100% 29.53 in 5.6 mi WSW 3.5 mph - N/A   Partly Cloudy
7:00 AM 55.4 °F 55.4 °F 100% 29.53 in 6.2 mi WSW 8.1 mph - N/A   Partly Cloudy
7:30 AM 55.4 °F 55.4 °F 100% 29.53 in 6.2 mi West 4.6 mph - N/A   Scattered Clouds
7:50 AM 57.2 °F 55.4 °F 94% 29.56 in 5.0 mi WNW 10.4 mph - N/A Rain Rain
8:00 AM 57 °F 50 °F 71% 29.60 in 4 mi WNW 19.6 mph - - Rain Rain
8:00 AM 57.2 °F 53.6 °F 88% 29.59 in 4.3 mi WNW 18.4 mph 29.9 mph N/A Rain Rain
8:30 AM 57.2 °F 50.0 °F 77% 29.56 in 6.2 mi West 10.4 mph - N/A   Mostly Cloudy
9:00 AM 57.2 °F 50.0 °F 77% 29.56 in 6.2 mi West 10.4 mph - N/A   Mostly Cloudy
9:30 AM 59.0 °F 50.0 °F 72% 29.56 in 6.2 mi West 10.4 mph - N/A   Partly Cloudy
10:00 AM 62.6 °F 50.0 °F 63% 29.56 in 6.2 mi WSW 16.1 mph - N/A   Partly Cloudy
10:30 AM 64.4 °F 44.6 °F 49% 29.56 in 6.2 mi West 21.9 mph - N/A   Partly Cloudy
11:00 AM 66.2 °F 44.6 °F 46% 29.59 in 6.2 mi West 21.9 mph - N/A   Partly Cloudy
11:30 AM 68.0 °F 44.6 °F 43% 29.59 in 6.2 mi West 21.9 mph - N/A   Partly Cloudy
12:30 PM 69.8 °F 37.4 °F 31% 29.59 in 6.2 mi West 25.3 mph - N/A   Partly Cloudy
1:00 PM 69.8 °F 37.4 °F 31% 29.62 in 6.2 mi West 23.0 mph 38.0 mph N/A   Partly Cloudy
1:30 PM 71.6 °F 39.2 °F 31% 29.59 in 6.2 mi West 20.7 mph 32.2 mph N/A   Partly Cloudy
2:00 PM 71 °F 34 °F 15% 29.62 in 25 mi West 24.2 mph - -   Partly Cloudy
2:00 PM 71.6 °F 37.4 °F 29% 29.62 in 6.2 mi West 23.0 mph - N/A   Scattered Clouds
2:30 PM 73.4 °F 35.6 °F 25% 29.62 in 6.2 mi West 21.9 mph 33.4 mph N/A   Scattered Clouds
3:00 PM 71.6 °F 35.6 °F 27% 29.62 in 6.2 mi West 20.7 mph 33.4 mph N/A   Scattered Clouds
3:30 PM 73.4 °F 33.8 °F 23% 29.62 in 6.2 mi West 23.0 mph 40.3 mph N/A   Scattered Clouds
4:00 PM 73.4 °F 35.6 °F 25% 29.62 in 6.2 mi West 20.7 mph 33.4 mph N/A   Scattered Clouds
4:30 PM 73.4 °F 33.8 °F 23% 29.59 in 6.2 mi West 21.9 mph 33.4 mph N/A   Scattered Clouds
5:00 PM 71.6 °F 32.0 °F 23% 29.62 in 6.2 mi West 25.3 mph - N/A   Scattered Clouds
5:30 PM 71.6 °F 35.6 °F 27% 29.62 in 6.2 mi West 23.0 mph - N/A   Scattered Clouds
6:30 PM 71.6 °F 35.6 °F 27% 29.62 in 6.2 mi West 20.7 mph 34.5 mph N/A   Scattered Clouds
7:00 PM 71.6 °F 35.6 °F 27% 29.62 in 6.2 mi WSW 18.4 mph 31.1 mph N/A   Scattered Clouds
7:30 PM 69.8 °F 37.4 °F 31% 29.65 in 6.2 mi West 12.7 mph - N/A   Scattered Clouds
8:00 PM 68 °F 31 °F 15% 29.67 in 19 mi West 17.3 mph - -   Scattered Clouds
8:00 PM 68.0 °F 33.8 °F 28% 29.65 in 6.2 mi West 17.3 mph - N/A   Partly Cloudy
8:30 PM 66.2 °F 35.6 °F 32% 29.68 in 6.2 mi West 18.4 mph 31.1 mph N/A   Partly Cloudy
9:00 PM 66.2 °F 37.4 °F 35% 29.68 in 6.2 mi West 12.7 mph - N/A   Partly Cloudy
9:30 PM 64.4 °F 37.4 °F 37% 29.71 in 6.2 mi WSW 9.2 mph 25.3 mph N/A   Partly Cloudy
10:00 PM 64.4 °F 37.4 °F 37% 29.71 in 6.2 mi West 12.7 mph - N/A   Partly Cloudy
10:30 PM 64.4 °F 39.2 °F 40% 29.74 in 6.2 mi West 10.4 mph - N/A   Partly Cloudy
11:00 PM 62.6 °F 39.2 °F 42% 29.74 in 6.2 mi WSW 5.8 mph - N/A   Partly Cloudy
11:30 PM 60.8 °F 39.2 °F 45% 29.74 in 6.2 mi West 5.8 mph - N/A   Partly Cloudy